Armant, Egypt

6:25 PM EET on February 19, 2018 (GMT +0200)
Armant

Weather History for 62405 - May, 2014

Change the Weather History Date:

Sunday, May 4, 2014

  Actual Average Record
Temperature  
Mean Temperature 88 °F -  
Max Temperature 106 °F 99 °F - ()
Min Temperature 70 °F 71 °F - ()
Cooling Degree Days 23    
Growing Degree Days 38 (Base 50)    
Moisture  
Dew Point 43 °F    
Average Humidity 19    
Maximum Humidity 31    
Minimum Humidity 7    
Precipitation  
Precipitation 0.00 in 0.00 in - ()
Sea Level Pressure  
Sea Level Pressure 29.80 in    
Wind  
Wind Speed 3 mph ()    
Max Wind Speed 18 mph    
Max Gust Speed -    
Visibility 5.5 miles    
Events      
T = Trace of Precipitation, MM = Missing Value Source: Averaged Metar Reports

Daily Weather History Graph

Daily Weather History Graph

Search for Another Location

Airport or City:

Trip Planner

Search our weather history database for the weather conditions in past years. The results will help you decide how hot, cold, wet, or windy it might be!

Date:

Astronomy

May. 04, 2014 Rise Set
Actual Time 5:10 AM EET 6:21 PM EET
Civil Twilight 4:46 AM EET 6:46 PM EET
Nautical Twilight 4:17 AM EET 7:14 PM EET
Astronomical Twilight 3:47 AM EET 7:44 PM EET
Moon 9:19 AM EET (5/4) 10:53 PM EET (5/4)
Length of Visible Light 13h 59m
Length of Day
13h 11m
Waxing Crescent, 25% of the Moon is Illuminated
May 4
Waxing Crescent
May 7
First Quarter
May 14
Full
May 21
Last Quarter
May 28
New

Hourly Weather History & Observations

Time (EET) Temp. Dew Point Humidity Pressure Visibility Wind Dir Wind Speed Gust Speed Precip Events Conditions
12:00 AM 82.4 °F 42.8 °F 25% 29.83 in - Calm Calm - N/A   Clear
1:00 AM 80.6 °F 42.8 °F 26% 29.83 in - Calm Calm - N/A   Clear
2:00 AM 80 °F 42 °F 16% 29.83 in 6 mi Calm Calm - -  
2:09 AM 80.6 °F 42.8 °F 26% 29.83 in - Calm Calm - N/A   Clear
3:00 AM 77.0 °F 39.2 °F 26% 29.83 in - Calm Calm - N/A   Clear
4:00 AM 73.4 °F 35.6 °F 25% 29.83 in - Calm Calm - N/A   Clear
5:00 AM 74 °F 36 °F 15% 29.84 in 6 mi Calm Calm - -  
5:00 AM 73.4 °F 35.6 °F 25% 29.83 in - Calm Calm - N/A   Clear
6:00 AM 73.4 °F 37.4 °F 27% 29.86 in - Calm Calm - N/A   Clear
7:00 AM 77.0 °F 41.0 °F 28% 29.89 in - Calm Calm - N/A   Clear
8:00 AM 85 °F 43 °F 14% 29.88 in 5 mi Calm Calm - -   Haze
8:00 AM 86.0 °F 42.8 °F 22% 29.89 in 5.0 mi Calm Calm - N/A   Unknown
9:00 AM 89.6 °F 48.2 °F 24% 29.86 in 4.3 mi Calm Calm - N/A   Unknown
10:00 AM 95.0 °F 50.0 °F 22% 29.86 in 4.3 mi NE 5.8 mph - N/A   Unknown
11:00 AM 100 °F 47 °F 10% 29.82 in 6 mi ESE 11.5 mph - -   Clear
11:00 AM 100.4 °F 48.2 °F 17% 29.83 in - ESE 11.5 mph - N/A   Clear
1:00 PM 104.0 °F 44.6 °F 13% 29.77 in - ESE 9.2 mph - N/A   Clear
2:00 PM 105 °F 44 °F 7% 29.74 in 6 mi East 6.9 mph - -   Clear
2:00 PM 105.8 °F 44.6 °F 13% 29.74 in - East 6.9 mph - N/A   Clear
3:00 PM 105.8 °F 44.6 °F 13% 29.74 in - South 2.3 mph - N/A   Clear
4:00 PM 104.0 °F 51.8 °F 17% 29.74 in - NW 4.6 mph - N/A   Clear
5:00 PM 104 °F 46 °F 7% 29.70 in 6 mi ENE 18.4 mph - -   Clear
5:00 PM 104.0 °F 46.4 °F 14% 29.71 in - ENE 18.4 mph - N/A   Clear
6:00 PM 102.2 °F 42.8 °F 13% 29.74 in - ENE 17.3 mph - N/A   Clear
7:00 PM 96.8 °F 42.8 °F 16% 29.77 in - NNE 6.9 mph - N/A   Clear
8:00 PM 92 °F 43 °F 10% 29.78 in 6 mi North 3.5 mph - -  
8:00 PM 75.2 °F 42.8 °F 31% 29.80 in - North 3.5 mph - N/A   Clear
9:00 PM 91.4 °F 41.0 °F 17% 29.80 in - East 3.5 mph - N/A   Clear
10:00 PM 86.0 °F 42.8 °F 22% 29.77 in - North 3.5 mph - N/A   Clear
11:00 PM 84 °F 42 °F 14% 29.78 in 6 mi NNW 1.2 mph - -  
11:00 PM 84.2 °F 42.8 °F 23% 29.77 in - NNW 1.2 mph - N/A   Clear